TimeEDT,TemperatureF,Dew PointF,Humidity,Sea Level PressureIn,VisibilityMPH,Wind Direction,Wind SpeedMPH,Gust SpeedMPH,PrecipitationIn,Events,Conditions,WindDirDegrees,DateUTC
12:53 AM,81.0,73.9,79,29.97,10.0,SSE,6.9,-,N/A,,Partly Cloudy,160,2012-09-18 04:53:00
1:53 AM,81.0,73.9,79,29.97,10.0,South,5.8,-,N/A,,Partly Cloudy,170,2012-09-18 05:53:00
2:53 AM,80.1,73.9,81,29.96,10.0,SSW,4.6,-,N/A,,Partly Cloudy,200,2012-09-18 06:53:00
3:53 AM,80.1,73.9,81,29.95,10.0,South,4.6,-,N/A,,Partly Cloudy,190,2012-09-18 07:53:00
4:53 AM,79.0,73.9,84,29.94,10.0,SSW,3.5,-,N/A,,Partly Cloudy,200,2012-09-18 08:53:00
5:53 AM,79.0,73.9,84,29.93,10.0,South,3.5,-,N/A,,Partly Cloudy,180,2012-09-18 09:53:00
6:53 AM,79.0,73.9,84,29.94,10.0,Calm,Calm,-,N/A,,Scattered Clouds,0,2012-09-18 10:53:00
7:53 AM,79.0,75.0,88,29.95,10.0,SSW,3.5,-,N/A,,Partly Cloudy,210,2012-09-18 11:53:00
8:53 AM,82.9,75.0,77,29.96,10.0,South,5.8,-,N/A,,Partly Cloudy,190,2012-09-18 12:53:00
9:53 AM,84.9,75.0,72,29.97,10.0,South,11.5,-,N/A,,Clear,190,2012-09-18 13:53:00
10:53 AM,86.0,73.9,67,29.98,10.0,SSW,12.7,-,N/A,,Partly Cloudy,200,2012-09-18 14:53:00
11:53 AM,89.1,73.9,61,29.98,10.0,South,9.2,-,N/A,,Scattered Clouds,190,2012-09-18 15:53:00
12:53 PM,86.0,77.0,74,29.97,10.0,NW,6.9,-,0.00,,Mostly Cloudy,320,2012-09-18 16:53:00
1:02 PM,84.2,75.2,74,29.97,7.0,West,6.9,-,0.04,Rain-Thunderstorm,Heavy Thunderstorms and Rain,280,2012-09-18 17:02:00
1:21 PM,78.8,73.4,83,29.97,4.0,ESE,13.8,17.3,0.35,Rain-Thunderstorm,Heavy Thunderstorms and Rain,120,2012-09-18 17:21:00
1:53 PM,78.1,73.9,87,29.96,10.0,SSE,4.6,-,0.36,Thunderstorm,Thunderstorm,150,2012-09-18 17:53:00
2:10 PM,78.8,75.2,89,29.95,10.0,SE,4.6,-,N/A,,Mostly Cloudy,140,2012-09-18 18:10:00
2:53 PM,84.9,79.0,82,29.93,10.0,SSE,6.9,-,N/A,,Mostly Cloudy,150,2012-09-18 18:53:00
3:53 PM,87.1,79.0,77,29.91,10.0,SE,4.6,-,N/A,,Mostly Cloudy,130,2012-09-18 19:53:00
4:53 PM,89.1,73.9,61,29.91,10.0,West,9.2,16.1,N/A,,Mostly Cloudy,260,2012-09-18 20:53:00
5:30 PM,89.6,73.4,59,29.90,10.0,WSW,9.2,-,N/A,Thunderstorm,Thunderstorm,240,2012-09-18 21:30:00
5:53 PM,90.0,73.9,59,29.90,10.0,WSW,5.8,-,N/A,Thunderstorm,Thunderstorm,240,2012-09-18 21:53:00
6:53 PM,81.0,73.9,79,29.92,10.0,SSE,11.5,-,0.00,Thunderstorm,Thunderstorm,150,2012-09-18 22:53:00
7:53 PM,82.0,73.9,76,29.92,10.0,SSW,5.8,-,N/A,Thunderstorm,Thunderstorm,210,2012-09-18 23:53:00
8:07 PM,82.4,75.2,79,29.93,10.0,South,6.9,-,N/A,,Partly Cloudy,180,2012-09-19 00:07:00
8:53 PM,82.0,75.0,79,29.96,10.0,South,4.6,-,N/A,,Scattered Clouds,170,2012-09-19 00:53:00
9:35 PM,82.4,71.6,70,30.00,10.0,NW,12.7,21.9,N/A,,Mostly Cloudy,310,2012-09-19 01:35:00
9:38 PM,82.4,71.6,70,30.00,10.0,NW,8.1,21.9,N/A,,Mostly Cloudy,310,2012-09-19 01:38:00
9:53 PM,81.0,72.0,74,30.01,9.0,West,8.1,-,0.00,Rain,Light Rain,260,2012-09-19 01:53:00
9:59 PM,78.8,73.4,83,30.00,9.0,WSW,8.1,16.1,0.01,Rain,Light Rain,240,2012-09-19 01:59:00
10:03 PM,78.8,73.4,83,30.00,8.0,WSW,11.5,16.1,0.01,Rain,Light Rain,250,2012-09-19 02:03:00
10:53 PM,77.0,73.0,88,30.01,10.0,Calm,Calm,-,N/A,Rain,Light Rain,0,2012-09-19 02:53:00
11:53 PM,77.0,73.9,90,30.01,10.0,SSE,6.9,-,0.01,,Partly Cloudy,160,2012-09-19 03:53:00